Tracking 29892 objects as of 21-Nov-2024
HD Live streaming from Space Station
objects crossing your sky now

RISAT-2BR2

Track RISAT-2BR2 now!
10-day predictions


NORAD ID: 46905
Int'l Code: 2020-081A
Perigee: 565.7 km
Apogee: 582.1 km
Inclination: 36.9 °
Period: 96.0 minutes
Semi major axis: 6944 km
RCS: Unknown
Launch date: November 7, 2020
Source: India (IND)
Launch site: SRIHARIKOTA (SRI)
Your satellite tracking list
Your tracking list is empty




NASA's NSSDC Master Catalog

Two Line Element Set (TLE):
1 46905U 20081A   24325.64144393  .00008981  00000-0  71217-3 0  9992
2 46905  36.9009  27.6388 0011835 163.1295 196.9841 15.00036988221241
Source of the keplerian elements: AFSPC